Dublin, VA

9:02 AM EST on December 06, 2019 (GMT -0500)
New River Valley

Weather History for KPSK - October, 2019

Change the Weather History Date:

Tuesday, October 22, 2019

  Actual Average (KBCB) Record (KBCB)
Temperature  
Mean Temperature 56 °F -  
Max Temperature 64 °F 62 °F 79 °F (1979)
Min Temperature 49 °F 34 °F 20 °F (1974)
Degree Days  
Heating Degree Days 8    
Growing Degree Days 6 (Base 50)    
Moisture  
Dew Point 55 °F    
Average Humidity 86    
Maximum Humidity 100    
Minimum Humidity 56    
Precipitation  
Precipitation 0.44 in - - ()
Sea Level Pressure  
Sea Level Pressure 29.93 in    
Wind  
Wind Speed 5 mph (WSW)    
Max Wind Speed 12 mph    
Max Gust Speed 18 mph    
Visibility 9 miles    
Events Rain    
Averages and records for this station are not official NWS values.
T = Trace of Precipitation, MM = Missing Value Source: NWS Daily Summary

Daily Weather History Graph

Daily Weather History Graph

Search for Another Location

Airport or City:

Astronomy

Oct. 22, 2019 Rise Set
Actual Time 7:36 AM EDT 6:36 PM EDT
Civil Twilight 7:10 AM EDT 7:03 PM EDT
Nautical Twilight 6:40 AM EDT 7:33 PM EDT
Astronomical Twilight 6:09 AM EDT 8:03 PM EDT
Moon 12:56 AM EDT (10/22) 3:34 PM EDT (10/22)
Length of Visible Light 11h 52m
Length of Day
11h 00m
Last Quarter, 37% of the Moon is Illuminated
Oct 22
Last Quarter
Oct 27
New
Nov 4
First Quarter
Nov 12
Full
Nov 19
Last Quarter

Hourly Weather History & Observations

Time (EDT) Temp. Dew Point Humidity Pressure Visibility Wind Dir Wind Speed Gust Speed Precip Events Conditions
12:15 AM 63.0 °F 59.9 °F 90% 30.06 in 10.0 mi South 4.6 mph - N/A   Overcast
12:35 AM 63.1 °F 60.1 °F 90% 30.05 in 10.0 mi South 8.1 mph - N/A   Overcast
12:55 AM 63.1 °F 60.1 °F 90% 30.03 in 10.0 mi SSE 5.8 mph - N/A   Overcast
1:15 AM 62.8 °F 59.9 °F 90% 30.02 in 10.0 mi Calm Calm - N/A   Overcast
1:35 AM 62.1 °F 59.9 °F 93% 30.01 in 10.0 mi East 4.6 mph - N/A   Overcast
1:55 AM 62.4 °F 59.9 °F 91% 30.01 in 10.0 mi SE 3.5 mph - N/A   Overcast
2:15 AM 62.2 °F 59.9 °F 92% 29.99 in 10.0 mi SE 3.5 mph - N/A   Overcast
2:35 AM 62.1 °F 59.9 °F 93% 30.00 in 10.0 mi Calm Calm - N/A   Mostly Cloudy
2:55 AM 61.7 °F 59.7 °F 93% 29.98 in 10.0 mi Calm Calm - N/A   Overcast
3:15 AM 63.5 °F 60.4 °F 90% 29.98 in 10.0 mi SSE 5.8 mph - N/A   Overcast
3:35 AM 63.5 °F 60.4 °F 90% 29.97 in 10.0 mi South 9.2 mph - N/A   Overcast
3:55 AM 63.7 °F 60.3 °F 89% 29.95 in 10.0 mi South 8.1 mph - N/A   Overcast
4:15 AM 63.5 °F 60.4 °F 90% 29.96 in 10.0 mi South 5.8 mph - N/A   Overcast
4:35 AM 63.0 °F 60.8 °F 93% 29.96 in 10.0 mi SSW 9.2 mph - N/A   Overcast
4:55 AM 62.6 °F 61.0 °F 94% 29.96 in 10.0 mi South 8.1 mph - N/A   Overcast
5:15 AM 62.6 °F 61.0 °F 94% 29.95 in 10.0 mi South 6.9 mph 16.1 mph N/A   Overcast
5:35 AM 63.0 °F 60.8 °F 93% 29.95 in 10.0 mi South 4.6 mph - N/A   Overcast
6:15 AM 62.6 °F 60.8 °F 94% 29.93 in 10.0 mi ESE 5.8 mph - N/A   Overcast
6:35 AM 62.2 °F 60.8 °F 95% 29.93 in 10.0 mi Calm Calm - N/A   Overcast
6:55 AM 63.5 °F 60.8 °F 91% 29.93 in 10.0 mi SSE 3.5 mph - N/A   Overcast
7:15 AM 62.4 °F 60.8 °F 94% 29.93 in 10.0 mi SE 3.5 mph - N/A   Overcast
7:35 AM 62.6 °F 61.2 °F 95% 29.91 in 10.0 mi SE 3.5 mph - N/A Rain Rain
7:55 AM 62.1 °F 61.0 °F 96% 29.92 in 10.0 mi SSE 5.8 mph - N/A   Overcast
8:35 AM 62.1 °F 60.8 °F 96% 29.91 in 10.0 mi ESE 5.8 mph - N/A   Overcast
8:55 AM 61.3 °F 60.8 °F 98% 29.91 in 10.0 mi ENE 5.8 mph - N/A   Light Drizzle
9:15 AM 60.8 °F 60.4 °F 99% 29.91 in 10.0 mi ENE 5.8 mph - N/A   Overcast
9:35 AM 60.8 °F 60.3 °F 98% 29.90 in 10.0 mi ENE 4.6 mph - N/A Rain Light Rain
9:55 AM 60.6 °F 60.4 °F 99% 29.89 in 5.0 mi ENE 5.8 mph - 0.02 in Rain Heavy Rain
10:35 AM 60.3 °F 60.3 °F 100% 29.88 in 7.0 mi NNW 6.9 mph - 0.01 in   Overcast
10:55 AM 60.1 °F 60.1 °F 100% 29.88 in 1.5 mi NNW 4.6 mph - 0.14 in Rain Heavy Rain
11:15 AM 60.3 °F 60.3 °F 100% 29.88 in 3.0 mi NNW 5.8 mph - 0.03 in Rain Rain
11:35 AM 60.3 °F 60.3 °F 100% 29.88 in 2.5 mi NNW 6.9 mph - 0.08 in Rain Heavy Rain
11:55 AM 58.5 °F 57.4 °F 96% 29.90 in 3.0 mi WNW 11.5 mph - 0.14 in Rain Heavy Rain
12:15 PM 57.6 °F 56.7 °F 97% 29.90 in 2.5 mi WNW 8.1 mph - 0.05 in Rain Heavy Rain
12:35 PM 57.4 °F 56.7 °F 97% 29.91 in 4.0 mi SW 4.6 mph - 0.10 in Rain Heavy Rain
12:55 PM 57.2 °F 56.7 °F 98% 29.90 in 7.0 mi WSW 5.8 mph - 0.13 in Rain Light Rain
1:35 PM 58.1 °F 56.8 °F 96% 29.88 in 10.0 mi WSW 4.6 mph - N/A Rain Light Rain
1:55 PM 58.3 °F 56.8 °F 95% 29.86 in 10.0 mi West 3.5 mph - N/A   Drizzle
2:15 PM 59.4 °F 57.2 °F 93% 29.86 in 10.0 mi Calm Calm - N/A   Light Drizzle
2:35 PM 60.4 °F 57.2 °F 89% 29.86 in 10.0 mi WNW 5.8 mph - 0.01 in   Overcast
2:55 PM 60.6 °F 56.7 °F 87% 29.86 in 10.0 mi NW 8.1 mph - 0.01 in   Overcast
3:15 PM 60.4 °F 56.7 °F 87% 29.86 in 10.0 mi WNW 3.5 mph - N/A   Overcast
3:35 PM 63.5 °F 56.3 °F 77% 29.85 in 10.0 mi West 8.1 mph - N/A   Scattered Clouds
3:55 PM 64.4 °F 53.8 °F 68% 29.86 in 10.0 mi West 9.2 mph - N/A   Clear
4:35 PM 64.4 °F 49.8 °F 59% 29.86 in 10.0 mi West 10.4 mph - N/A   Scattered Clouds
4:55 PM 64.6 °F 49.8 °F 59% 29.87 in 10.0 mi West 9.2 mph - N/A   Scattered Clouds
5:15 PM 63.7 °F 47.5 °F 56% 29.88 in 10.0 mi WNW 9.2 mph - N/A   Mostly Cloudy
5:35 PM 62.6 °F 47.3 °F 57% 29.88 in 10.0 mi West 10.4 mph - N/A   Scattered Clouds
5:55 PM 62.6 °F 46.6 °F 56% 29.89 in 10.0 mi West 10.4 mph - N/A   Clear
6:15 PM 61.2 °F 46.9 °F 60% 29.90 in 10.0 mi West 5.8 mph - N/A   Clear
6:35 PM 58.6 °F 47.5 °F 66% 29.91 in 10.0 mi West 5.8 mph - N/A   Clear
6:55 PM 57.7 °F 47.1 °F 68% 29.91 in 10.0 mi West 3.5 mph - N/A   Clear
7:15 PM 55.9 °F 48.0 °F 75% 29.92 in 10.0 mi WSW 5.8 mph - N/A   Clear
7:35 PM 55.0 °F 48.2 °F 78% 29.93 in 10.0 mi WSW 4.6 mph - N/A   Clear
7:55 PM 54.9 °F 47.7 °F 77% 29.93 in 10.0 mi West 5.8 mph - N/A   Clear
8:15 PM 50.0 °F 47.5 °F 91% 29.94 in 10.0 mi West 5.8 mph - N/A   Clear
8:35 PM 52.5 °F 47.8 °F 84% 29.95 in 10.0 mi West 6.9 mph - N/A   Clear
8:55 PM 51.4 °F 47.3 °F 86% 29.95 in 10.0 mi West 4.6 mph - N/A   Clear
9:15 PM 50.4 °F 46.9 °F 88% 29.95 in 10.0 mi WNW 4.6 mph - N/A   Clear
9:35 PM 49.5 °F 46.6 °F 90% 29.96 in 10.0 mi West 4.6 mph - N/A   Clear
9:55 PM 50.2 °F 47.3 °F 90% 29.96 in 10.0 mi West 5.8 mph - N/A   Clear
10:15 PM 50.0 °F 46.4 °F 87% 29.97 in 10.0 mi West 3.5 mph - N/A   Clear
10:35 PM 50.0 °F 45.5 °F 85% 29.98 in 10.0 mi West 4.6 mph - N/A   Clear
10:55 PM 51.3 °F 44.2 °F 77% 29.98 in 10.0 mi WNW 5.8 mph - N/A   Clear
11:15 PM 51.1 °F 43.2 °F 74% 29.98 in 10.0 mi WNW 9.2 mph - N/A   Clear
11:35 PM 53.2 °F 43.0 °F 68% 29.98 in 10.0 mi WNW 10.4 mph - N/A   Clear
11:55 PM 53.6 °F 42.6 °F 66% 29.98 in 10.0 mi WNW 11.5 mph 18.4 mph N/A   Clear